Kenai, AK

5:04 PM AKDT on October 22, 2017 (GMT -0800)
Kenai Municipal

Weather History for PAEN - February, 2012

Change the Weather History Date:

Saturday, February 4, 2012

  Actual Average Record
Temperature  
Mean Temperature 11 °F -  
Max Temperature 19 °F 22 °F 43 °F (1983)
Min Temperature 3 °F 5 °F -34 °F (1999)
Degree Days  
Heating Degree Days 54    
Moisture  
Dew Point 10 °F    
Average Humidity 88    
Maximum Humidity 92    
Minimum Humidity 78    
Precipitation  
Precipitation 0.00 in - - ()
Sea Level Pressure  
Sea Level Pressure 30.08 in    
Wind  
Wind Speed 9 mph (NNE)    
Max Wind Speed 24 mph    
Max Gust Speed 30 mph    
Visibility 9 miles    
Events Snow    
Averages and records for this station are not official NWS values.
T = Trace of Precipitation, MM = Missing Value Source: NWS Daily Summary

Daily Weather History Graph

Daily Weather History Graph

Search for Another Location

Airport or City:

Trip Planner

Search our weather history database for the weather conditions in past years. The results will help you decide how hot, cold, wet, or windy it might be!

Date:

Astronomy

Feb. 04, 2012 Rise Set
Actual Time 9:15 AM AKST 5:23 PM AKST
Civil Twilight 8:27 AM AKST 6:11 PM AKST
Nautical Twilight 7:36 AM AKST 7:02 PM AKST
Astronomical Twilight 6:47 AM AKST 7:51 PM AKST
Moon 1:55 PM AKST (2/4) 7:25 AM AKST (2/4)
Length of Visible Light 9h 43m
Length of Day
8h 08m
Waxing Gibbous, 90% of the Moon is Illuminated
Feb 4
Waxing Gibbous
Feb 7
Full
Feb 14
Last Quarter
Feb 21
New
Feb 29
First Quarter

Hourly Weather History & Observations

Time (AKST) Temp. Windchill Dew Point Humidity Pressure Visibility Wind Dir Wind Speed Gust Speed Precip Events Conditions
12:53 AM 14.0 °F 3.9 °F 10.9 °F 88% 29.89 in 4.0 mi South 6.9 mph - 0.00 in Snow Light Snow
1:53 AM 12.9 °F 3.8 °F 10.9 °F 92% 29.93 in 5.0 mi SSE 5.8 mph - 0.00 in Snow Light Snow
2:18 AM 12.2 °F 2.9 °F 10.4 °F 92% 29.94 in 5.0 mi SSE 5.8 mph - 0.00 in Snow Light Snow
2:53 AM 12.0 °F - 9.0 °F 88% 29.96 in 6.0 mi Calm Calm - 0.00 in Snow Light Snow
3:19 AM 10.4 °F 4.0 °F 8.6 °F 92% 29.97 in 10.0 mi East 3.5 mph - 0.00 in   Overcast
3:42 AM 8.6 °F - 5.0 °F 85% 29.98 in 10.0 mi Calm Calm - 0.00 in   Scattered Clouds
3:53 AM 8.1 °F 1.4 °F 6.1 °F 92% 29.99 in 10.0 mi East 3.5 mph - 0.00 in   Partly Cloudy
4:53 AM 3.9 °F -5.3 °F 1.9 °F 91% 30.02 in 10.0 mi NNE 4.6 mph - N/A   Clear
5:53 AM 3.9 °F -5.3 °F 1.9 °F 91% 30.04 in 10.0 mi North 4.6 mph - N/A   Clear
6:53 AM 6.1 °F -0.9 °F 3.0 °F 87% 30.07 in 10.0 mi NNE 3.5 mph - N/A   Clear
7:53 AM 5.0 °F -6.9 °F 1.9 °F 87% 30.10 in 10.0 mi NNE 6.9 mph - N/A   Clear
8:53 AM 6.1 °F -7.8 °F 3.0 °F 87% 30.12 in 10.0 mi NNE 9.2 mph - N/A   Partly Cloudy
9:53 AM 9.0 °F -2.2 °F 7.0 °F 92% 30.13 in 10.0 mi North 6.9 mph - N/A   Overcast
10:53 AM 10.9 °F -0.8 °F 9.0 °F 92% 30.15 in 10.0 mi NNE 8.1 mph - N/A   Clear
11:53 AM 15.1 °F 1.8 °F 12.9 °F 91% 30.17 in 10.0 mi North 11.5 mph - N/A   Clear
12:53 PM 17.1 °F 5.0 °F 15.1 °F 92% 30.18 in 10.0 mi North 10.4 mph - N/A   Clear
1:53 PM 19.0 °F 6.8 °F 16.0 °F 88% 30.17 in 10.0 mi North 11.5 mph - N/A   Clear
2:53 PM 19.0 °F 4.5 °F 15.1 °F 85% 30.14 in 10.0 mi North 16.1 mph - N/A   Clear
3:53 PM 17.1 °F 1.5 °F 14.0 °F 88% 30.15 in 10.0 mi NNE 17.3 mph - N/A   Clear
4:53 PM 16.0 °F 0.6 °F 12.9 °F 88% 30.15 in 10.0 mi North 16.1 mph - N/A   Clear
5:53 PM 16.0 °F 1.1 °F 12.9 °F 88% 30.14 in 10.0 mi NNE 15.0 mph - N/A   Clear
6:53 PM 15.1 °F -0.1 °F 12.0 °F 88% 30.13 in 10.0 mi NNE 15.0 mph - N/A   Clear
7:53 PM 18.0 °F 2.2 °F 14.0 °F 84% 30.12 in 10.0 mi North 18.4 mph - N/A   Overcast
8:53 PM 19.0 °F 4.5 °F 14.0 °F 81% 30.11 in 10.0 mi NNE 16.1 mph - N/A   Overcast
9:53 PM 19.0 °F 4.0 °F 14.0 °F 81% 30.09 in 10.0 mi NNE 17.3 mph - N/A   Overcast
10:53 PM 19.9 °F 4.3 °F 14.0 °F 78% 30.08 in 10.0 mi NNE 19.6 mph - N/A   Overcast
11:53 PM 19.9 °F 2.8 °F 14.0 °F 78% 30.07 in 7.0 mi NNE 24.2 mph 29.9 mph N/A   Overcast